Time,TemperatureF,DewpointF,PressureIn,WindDirection,WindDirectionDegrees,WindSpeedMPH,WindSpeedGustMPH,Humidity,HourlyPrecipIn,Conditions,Clouds,dailyrainin,SoftwareType,DateUTC
2013-03-18 00:13:00,38.0,36.0,30.32,SSE,164,0.0,-999.0,93,-99.99,,,0.01,weatherlink.com 1.10,2013-03-18 04:13:00,
2013-03-18 00:28:00,37.9,36.0,30.32,SSE,164,0.0,-999.0,94,-99.99,,,0.01,weatherlink.com 1.10,2013-03-18 04:28:00,
2013-03-18 00:43:00,37.9,36.0,30.31,SSE,147,2.0,-999.0,94,-99.99,,,0.01,weatherlink.com 1.10,2013-03-18 04:43:00,
2013-03-18 00:58:00,37.6,36.0,30.31,SSE,153,4.0,-999.0,93,-99.99,,,0.01,weatherlink.com 1.10,2013-03-18 04:58:00,
2013-03-18 01:13:00,37.4,36.0,30.31,South,177,0.0,-999.0,94,-99.99,,,0.01,weatherlink.com 1.10,2013-03-18 05:13:00,
2013-03-18 01:28:00,37.4,36.0,30.31,WNW,292,0.0,-999.0,94,-99.99,,,0.01,weatherlink.com 1.10,2013-03-18 05:28:00,
2013-03-18 01:43:00,37.3,36.0,30.31,WNW,295,0.0,-999.0,94,-99.99,,,0.00,weatherlink.com 1.10,2013-03-18 05:43:00,
2013-03-18 01:58:00,37.2,36.0,30.31,WNW,295,0.0,-999.0,94,-99.99,,,0.01,weatherlink.com 1.10,2013-03-18 05:58:00,
2013-03-18 02:13:00,37.1,36.0,30.31,West,281,0.0,-999.0,94,-99.99,,,0.01,weatherlink.com 1.10,2013-03-18 06:13:00,
2013-03-18 02:28:00,37.1,36.0,30.31,NNW,327,0.0,-999.0,94,-99.99,,,0.01,weatherlink.com 1.10,2013-03-18 06:28:00,
2013-03-18 02:43:00,37.0,36.0,30.31,NW,305,0.0,-999.0,94,-99.99,,,0.01,weatherlink.com 1.10,2013-03-18 06:43:00,
2013-03-18 02:58:00,36.9,35.0,30.30,NNE,26,0.0,-999.0,94,-99.99,,,0.02,weatherlink.com 1.10,2013-03-18 06:58:00,
2013-03-18 03:13:00,36.9,35.0,30.30,NNW,341,0.0,-999.0,94,-99.99,,,0.02,weatherlink.com 1.10,2013-03-18 07:13:00,
2013-03-18 03:28:00,36.8,35.0,30.30,NNW,341,0.0,-999.0,94,-99.99,,,0.02,weatherlink.com 1.10,2013-03-18 07:28:00,
2013-03-18 03:43:00,36.9,35.0,30.30,NNW,341,0.0,-999.0,94,-99.99,,,0.02,weatherlink.com 1.10,2013-03-18 07:43:00,
2013-03-18 03:58:00,36.8,35.0,30.30,NNW,341,0.0,-999.0,94,-99.99,,,0.02,weatherlink.com 1.10,2013-03-18 07:58:00,
2013-03-18 04:13:00,36.8,35.0,30.30,NNW,341,0.0,-999.0,94,-99.99,,,0.02,weatherlink.com 1.10,2013-03-18 08:13:00,
2013-03-18 04:28:00,36.8,36.0,30.30,South,185,0.0,-999.0,95,-99.99,,,0.02,weatherlink.com 1.10,2013-03-18 08:28:00,
2013-03-18 04:43:00,36.6,35.0,30.30,South,185,0.0,-999.0,95,-99.99,,,0.02,weatherlink.com 1.10,2013-03-18 08:43:00,
2013-03-18 04:58:00,36.7,35.0,30.30,South,185,0.0,-999.0,95,-99.99,,,0.03,weatherlink.com 1.10,2013-03-18 08:58:00,
2013-03-18 05:13:00,36.6,35.0,30.31,NNE,19,0.0,-999.0,95,-99.99,,,0.03,weatherlink.com 1.10,2013-03-18 09:13:00,
2013-03-18 05:28:00,36.6,35.0,30.30,NNE,19,0.0,-999.0,95,-99.99,,,0.03,weatherlink.com 1.10,2013-03-18 09:28:00,
2013-03-18 05:43:00,36.5,37.0,30.32,NW,309,0.0,-999.0,100,-99.99,,,0.03,weatherlink.com 1.10,2013-03-18 09:43:00,
2013-03-18 05:58:00,36.5,35.0,30.31,NNE,24,1.0,-999.0,94,-99.99,,,0.03,weatherlink.com 1.10,2013-03-18 09:58:00,
2013-03-18 06:13:00,36.3,35.0,30.32,NNW,343,0.0,-999.0,94,-99.99,,,0.03,weatherlink.com 1.10,2013-03-18 10:13:00,
2013-03-18 06:28:00,36.2,35.0,30.32,NNW,339,2.0,-999.0,95,-99.99,,,0.03,weatherlink.com 1.10,2013-03-18 10:28:00,
2013-03-18 06:44:00,36.1,35.0,30.32,WNW,303,4.0,-999.0,95,-99.99,,,0.04,weatherlink.com 1.10,2013-03-18 10:44:00,
2013-03-18 06:59:00,36.0,35.0,30.32,ESE,123,0.0,-999.0,95,-99.99,,,0.04,weatherlink.com 1.10,2013-03-18 10:59:00,
2013-03-18 07:14:00,36.0,35.0,30.32,NNE,12,1.0,-999.0,95,-99.99,,,0.04,weatherlink.com 1.10,2013-03-18 11:14:00,
2013-03-18 07:29:00,35.9,35.0,30.33,South,184,0.0,-999.0,95,-99.99,,,0.04,weatherlink.com 1.10,2013-03-18 11:29:00,
2013-03-18 07:44:00,35.9,35.0,30.32,South,188,2.0,-999.0,95,-99.99,,,0.04,weatherlink.com 1.10,2013-03-18 11:44:00,
2013-03-18 07:59:00,35.9,35.0,30.33,SE,134,1.0,-999.0,95,-99.99,,,0.04,weatherlink.com 1.10,2013-03-18 11:59:00,
2013-03-18 08:14:00,35.7,34.0,30.32,South,191,2.0,-999.0,94,-99.99,,,0.04,weatherlink.com 1.10,2013-03-18 12:14:00,
2013-03-18 08:29:00,35.5,34.0,30.32,SW,219,0.0,-999.0,95,-99.99,,,0.04,weatherlink.com 1.10,2013-03-18 12:29:00,
2013-03-18 08:44:00,35.5,34.0,30.32,SSE,154,0.0,-999.0,95,-99.99,,,0.04,weatherlink.com 1.10,2013-03-18 12:44:00,
2013-03-18 08:59:00,35.5,34.0,30.32,SSE,154,5.0,-999.0,95,-99.99,,,0.04,weatherlink.com 1.10,2013-03-18 12:59:00,
2013-03-18 09:14:00,35.4,34.0,30.33,South,187,0.0,-999.0,95,-99.99,,,0.05,weatherlink.com 1.10,2013-03-18 13:14:00,
2013-03-18 09:29:00,35.4,34.0,30.33,SE,140,0.0,-999.0,95,-99.99,,,0.05,weatherlink.com 1.10,2013-03-18 13:29:00,
2013-03-18 09:44:00,35.4,34.0,30.33,South,175,0.0,-999.0,95,-99.99,,,0.05,weatherlink.com 1.10,2013-03-18 13:44:00,
2013-03-18 09:59:00,35.6,34.0,30.31,SW,214,2.0,-999.0,95,-99.99,,,0.05,weatherlink.com 1.10,2013-03-18 13:59:00,
2013-03-18 10:14:00,35.6,34.0,30.31,SE,133,0.0,-999.0,95,-99.99,,,0.06,weatherlink.com 1.10,2013-03-18 14:14:00,
2013-03-18 10:29:00,35.7,34.0,30.31,SE,146,0.0,-999.0,95,-99.99,,,0.06,weatherlink.com 1.10,2013-03-18 14:29:00,
2013-03-18 10:44:00,35.8,35.0,30.30,SE,146,0.0,-999.0,95,-99.99,,,0.06,weatherlink.com 1.10,2013-03-18 14:44:00,
2013-03-18 10:59:00,35.9,35.0,30.31,NW,321,0.0,-999.0,95,-99.99,,,0.06,weatherlink.com 1.10,2013-03-18 14:59:00,
2013-03-18 11:14:00,35.9,35.0,30.31,NNE,30,2.0,-999.0,95,-99.99,,,0.06,weatherlink.com 1.10,2013-03-18 15:14:00,
2013-03-18 11:29:00,36.0,35.0,30.30,ESE,113,0.0,-999.0,95,-99.99,,,0.06,weatherlink.com 1.10,2013-03-18 15:29:00,
2013-03-18 11:44:00,35.9,35.0,30.30,SSE,159,0.0,-999.0,95,-99.99,,,0.06,weatherlink.com 1.10,2013-03-18 15:44:00,
2013-03-18 11:59:00,35.7,34.0,30.29,SSE,167,1.0,-999.0,94,-99.99,,,0.07,weatherlink.com 1.10,2013-03-18 15:59:00,
2013-03-18 12:14:00,35.7,34.0,30.29,East,101,0.0,-999.0,94,-99.99,,,0.07,weatherlink.com 1.10,2013-03-18 16:14:00,
2013-03-18 12:29:00,35.7,34.0,30.28,South,170,5.0,-999.0,94,-99.99,,,0.07,weatherlink.com 1.10,2013-03-18 16:29:00,
2013-03-18 12:44:00,35.9,34.0,30.28,SSE,167,6.0,-999.0,94,-99.99,,,0.07,weatherlink.com 1.10,2013-03-18 16:44:00,
2013-03-18 12:59:00,35.8,34.0,30.27,South,169,0.0,-999.0,94,-99.99,,,0.07,weatherlink.com 1.10,2013-03-18 16:59:00,
2013-03-18 13:14:00,35.9,34.0,30.27,South,186,3.0,-999.0,94,-99.99,,,0.07,weatherlink.com 1.10,2013-03-18 17:14:00,
2013-03-18 13:29:00,36.2,35.0,30.26,SSE,153,0.0,-999.0,94,-99.99,,,0.07,weatherlink.com 1.10,2013-03-18 17:29:00,
2013-03-18 13:44:00,36.4,35.0,30.24,NNE,26,0.0,-999.0,94,-99.99,,,0.07,weatherlink.com 1.10,2013-03-18 17:44:00,
2013-03-18 13:59:00,36.6,35.0,30.22,SSE,158,2.0,-999.0,94,-99.99,,,0.07,weatherlink.com 1.10,2013-03-18 17:59:00,
2013-03-18 14:14:00,36.5,35.0,30.22,SSE,168,0.0,-999.0,93,-99.99,,,0.07,weatherlink.com 1.10,2013-03-18 18:14:00,
2013-03-18 14:29:00,36.7,35.0,30.22,NNE,15,0.0,-999.0,93,-99.99,,,0.07,weatherlink.com 1.10,2013-03-18 18:29:00,
2013-03-18 14:44:00,36.8,35.0,30.19,NNE,33,0.0,-999.0,93,-99.99,,,0.07,weatherlink.com 1.10,2013-03-18 18:44:00,
2013-03-18 14:59:00,36.8,35.0,30.20,West,271,0.0,-999.0,94,-99.99,,,0.07,weatherlink.com 1.10,2013-03-18 18:59:00,
2013-03-18 15:14:00,36.8,35.0,30.19,South,191,0.0,-999.0,93,-99.99,,,0.07,weatherlink.com 1.10,2013-03-18 19:14:00,
2013-03-18 15:29:00,36.7,35.0,30.20,SSE,153,2.0,-999.0,93,-99.99,,,0.07,weatherlink.com 1.10,2013-03-18 19:29:00,
2013-03-18 15:44:00,36.7,35.0,30.17,ENE,57,0.0,-999.0,92,-99.99,,,0.09,weatherlink.com 1.10,2013-03-18 19:44:00,
2013-03-18 16:28:00,36.7,35.0,30.17,NW,310,0.0,-999.0,93,-99.99,,,0.10,weatherlink.com 1.10,2013-03-18 20:28:00,
2013-03-18 16:45:00,36.7,35.0,30.17,NW,310,0.0,-999.0,93,-99.99,,,0.10,weatherlink.com 1.10,2013-03-18 20:45:00,